Location: Spring Creek
(38.2870°N, 100.2160°W)
Time: 05:40:33
(UTC+00:00)

BlueWalker 3 - Visible Passes

Search period start: 09 December 2022 00:00
Search period end: 19 December 2022 00:00
Orbit: 501 x 518 km, 53.2° (Epoch: 08 December)

Date Brightness Start Highest point End Pass type
(mag) Time Alt. Az. Time Alt. Az. Time Alt. Az.
09 Dec 3.4 01:23:59 10° NW 01:26:07 29° NNW 01:26:07 29° NNW visible
10 Dec 2.1 01:05:33 10° NW 01:09:06 56° NNE 01:09:06 56° NNE visible
11 Dec 1.9 00:47:07 10° NW 00:51:00 63° NE 00:52:21 36° ESE visible
11 Dec 5.3 02:27:02 10° W 02:27:15 11° W 02:27:15 11° W visible
12 Dec 1.9 00:28:41 10° NW 00:32:34 67° NE 00:36:00 13° ESE visible
12 Dec 4.9 02:08:49 10° W 02:10:47 14° SW 02:10:56 14° SW visible
13 Dec 1.9 00:10:14 10° NW 00:14:08 72° NE 00:18:00 10° SE visible
13 Dec 5.0 01:50:37 10° W 01:52:19 12° SW 01:54:00 10° SSW visible
13 Dec 1.9 23:51:48 10° NW 23:55:42 78° NE 23:59:34 10° SE visible
14 Dec 5.2 01:32:30 10° WSW 01:33:50 12° WSW 01:35:11 10° SW visible
15 Dec 5.4 01:14:31 10° WSW 01:15:22 11° WSW 01:16:13 10° SW visible
